Regional Weather Roundup
Issued by NWS

Home | Current Version | Previous Version | Graphics & Text | Print | Product List | Glossary On
Versions: 1 2 3 4 5 6 7 8 9 10 11 12 13 14 15 16 17 18 19 20 21 22 23 24 25 26 27
000
ASUS45 KSLC 111710
RWRUT

UTAH REGIONAL WEATHER ROUNDUP
NATIONAL WEATHER SERVICE SALT LAKE CITY UT
1000 AM MST MON DEC 11 2017

UTZ001>011-023>025-111800-

NORTHERN UTAH

CITY           SKY/WX    TMP DP  RH WIND       PRES   REMARKS
BRIGHAM CITY   SUNNY     22  18  85 CALM      30.65S
DUGWAY         MOSUNNY   17  14  91 S2        30.63S FOG
HILL AFB       SUNNY     25  13  62 E13       30.61R WCI  13
LOGAN          CLOUDY    20  13  74 CALM      30.65S
OGDEN          MOSUNNY   26  19  74 CALM      30.63R HAZE
SALT LAKE CITY FOG       27  24  89 CALM      30.65R VSB 1/4
TOOELE VALLEY  FOG       21  19  93 CALM      30.66R VSB 1/4
WENDOVER       MOSUNNY   20  18  92 E3        30.65R
HEBER CITY       N/A     23  14  68 CALM      30.59R
WEST JORDAN    SUNNY     23  22  97 CALM      30.64R

$$

UTZ011>015-024>027-111800-

CENTRAL/NORTHEAST UTAH

CITY           SKY/WX    TMP DP  RH WIND       PRES   REMARKS
PROVO AIRPORT  SUNNY     28  25  88 CALM      30.64R
MOAB/CANYONLAN PTSUNNY   30   7  37 CALM      30.57S
DELTA          PTSUNNY   21  14  73 CALM      30.61S
PRICE          SUNNY     35  -2  20 CALM      30.54S
RICHFIELD      SUNNY     21   1  42 CALM      30.60F
ROOSEVELT      CLOUDY    23   9  54 E3        30.63R
VERNAL         CLOUDY    28  10  46 CALM      30.59S

$$

UTZ013>016-019>022-027-111800-

SOUTHERN UTAH

CITY           SKY/WX    TMP DP  RH WIND       PRES   REMARKS
BRYCE CANYON   SUNNY     34 -14  12 CALM      30.56R
CEDAR CITY     MOSUNNY   28   6  39 N3        30.54S
MILFORD        MOSUNNY   19  11  70 S3        30.59R
ST GEORGE      SUNNY     35   3  26 CALM      30.52S
HANKSVILLE     PTSUNNY   23   3  42 CALM      30.61S
KANAB          SUNNY     43 -11  10 N13       30.53R
BLANDING         N/A     34   1  24 CALM      30.58R

$$

REGIONAL REPORTS     COLORADO/ARIZONA

CITY           SKY/WX    TMP DP  RH WIND       PRES   REMARKS
CRAIG, CO      CLOUDY    18  11  74 CALM      30.56S
GRAND JUNCTION SUNNY     30   3  31 CALM      30.57R
RIFLE, CO      SUNNY     28   6  39 CALM      30.59S
MONTROSE, CO   SUNNY     34  -1  22 CALM      30.58F
CORTEZ, CO     SUNNY     31   3  30 CALM      30.51S
COLORADO CITY    N/A     34   1  25 CALM      30.51S
PAGE, AZ       MOSUNNY   34  12  40 CALM      30.55R
GRAND CANYON   MOSUNNY   48 -13   7 NE8       30.49S
KINGMAN, AZ    MOSUNNY   49   2  14 NE5       30.39R
FLAGSTAFF, AZ  MOSUNNY   37  -2  19 E6        30.49R WCI  32

$$

REGIONAL REPORTS    NEVADA/IDAHO/WYOMING

CITY           SKY/WX    TMP DP  RH WIND       PRES   REMARKS
LAS VEGAS, NV  MOSUNNY   52   1  12 S6        30.41R
ELY, NY        MOSUNNY   21  -3  35 S8        30.57S WCI  11
ELKO, NV       PTSUNNY   18  11  74 CALM      30.59R
POCATELLO, ID  CLOUDY    19  15  84 CALM      30.61S
BURLEY, ID     PTSUNNY   19  16  88 CALM      30.60R FOG
FORT BRIDGER,    N/A     41   2  20 W12       30.57S
EVANSTON, WY   CLOUDY    30   9  41 CALM      30.57R
ROCK SPRINGS,  CLOUDY    37   2  22 W8        30.52R WCI  31

$$




USA.gov is the U.S. government's official web portal to all federal, state and local government web resources and services.